This is the latest recevied weather packets stored in our database for station/object KB3GVC-13. If no packets are shown the sender has not sent any weather packets the latest 10 day(s).
| Time | Temp. | Humidity | Pressure | Rain* | Wind** | Luminosity | Snow |
|---|---|---|---|---|---|---|---|
| 1777983965 | 19.44° C | 60% | 1012.9 hPa | 0 mm | - | - | - |
| 1777983662 | 19.44° C | 59% | 1012.9 hPa | 0 mm | - | - | - |
| 1777983358 | 18.89° C | 61% | 1013.1 hPa | 0 mm | - | - | - |
| 1777983055 | 18.89° C | 61% | 1013 hPa | 0 mm | - | - | - |
| 1777982752 | 18.33° C | 62% | 1013 hPa | 0 mm | - | - | - |
| 1777982447 | 18.33° C | 63% | 1012.8 hPa | 0 mm | - | - | - |
| 1777982142 | 17.78° C | 63% | 1013 hPa | 0 mm | - | - | - |
| 1777981840 | 17.78° C | 64% | 1012.9 hPa | 0 mm | - | - | - |
| 1777981536 | 17.78° C | 65% | 1012.9 hPa | 0 mm | - | - | - |
| 1777981233 | 17.22° C | 66% | 1012.8 hPa | 0 mm | - | - | - |
| 1777980930 | 17.22° C | 66% | 1012.8 hPa | 0 mm | - | - | - |
| 1777980626 | 17.22° C | 67% | 1012.9 hPa | 0 mm | - | - | - |
| 1777980323 | 16.67° C | 67% | 1012.9 hPa | 0 mm | - | - | - |
| 1777980021 | 16.67° C | 68% | 1012.9 hPa | 0 mm | - | - | - |
| 1777979720 | 16.67° C | 69% | 1012.8 hPa | 0 mm | - | - | - |
| 1777979416 | 16.11° C | 69% | 1012.7 hPa | 0 mm | - | - | - |
| 1777979113 | 16.11° C | 70% | 1012.6 hPa | 0 mm | - | - | - |
| 1777978810 | 16.11° C | 70% | 1012.5 hPa | 0 mm | - | - | - |
| 1777978507 | 15.56° C | 70% | 1012.6 hPa | 0 mm | - | - | - |
| 1777978202 | 15.56° C | 71% | 1012.4 hPa | 0 mm | - | - | - |
| 1777977900 | 15.56° C | 72% | 1012.4 hPa | 0 mm | - | - | - |
| 1777977596 | 15.56° C | 72% | 1012.3 hPa | 0 mm | - | - | - |
| 1777977294 | 15° C | 73% | 1012.2 hPa | 0 mm | - | - | - |
| 1777976991 | 15° C | 72% | 1012.2 hPa | 0 mm | - | - | - |
| 1777976688 | 15° C | 73% | 1012.2 hPa | 0 mm | - | - | - |
* Rain latest hour (hover to see other rain measurements)
** Current wind speed in m/s (hover to see current wind gust speed)